NIMBUS 2 DEB, 40645

Orbit data source: Space-Track

NIMBUS 2 DEB, 40645 is space debris in SSO originally from a launch on Sun, 15 May 1966 UTC launched from the Air Force Western Test Range (AFWTR). Debris objects in space refer to the collection of defunct objects orbiting the Earth. Examples of debris include non-operational satellites, rocket bodies, and fragments generated from explosions, collisions, or faulty payload assembly.

Loading next visibility...
Identifier
40645, 1966-040BJ
Orbit
SSO
Country
Flag of USUS
Related business
Manufacturer
Unknown
Mission
Spacecraft
Bus & Motor
Unknown
Mass
Unknown
Launch date (UTC)
1966-05-15 (60 years ago)
Launch vehicle
Unknown
Launch site
Air Force Western Test Range (AFWTR)
Object type
Payload
Rocket body
Debris
Shape & HBR
Unknown shape, 0.1 m
Radar Cross Section
Small (<0.1 m²)

Expand to show TLE details & history
Last TLE update: 18 hours ago

TLE from 18 hours ago
0 NIMBUS 2 DEB
1 40645U 66040BJ  25342.10384778  .00001689  00000-0  29504-2 0  9995
2 40645 100.3980 211.1826 0050788 290.0783  69.4884 13.44555917517220
Epoch: 2025-12-08T02:29Z
TLE epoch observation values (Epoch: 2025-12-08T02:29:32.448Z)
Latitude
-0.00001°
Longitude
96.68972°
Altitude
1,081.982 km
Speed
7.318 km/s
True Right ascension
14h 04m 43s
True Declination
0° 00' 00"
Sunlit
Object was in daylight at epoch
Visualization orbit readout
Latitude
Unknown
Longitude
Unknown
Altitude
Unknown
Speed
Unknown
Apparent Right ascension
Unknown
Apparent Declination
Unknown
Sunlit
N/A
Visualization observer readout
Local Sidereal Time
18:41:43
Azimuth
Unknown
Elevation
Unknown
Doppler factor
Unknown
Orbital elements
Apogee altitude
1,127.629 km
Perigee altitude
1,051.774 km
Semi-major axis
7,467.839 km
Eccentricity
0.00508
Inclination
100.398°
RAAN
211.1826°
Arg. of periapsis
290.0783°
True anomaly
70.0347°
Mean anomaly
69.4884°
Eccentric anomaly
69.76143°
Mean motion
3.36319 °/min
Orbital period
107.04 mins
BSTAR
0.0029504
Loading maneuver chart data...
Computing Atmospheric mass density...
Loading historical data...
Loading historical data...
Loading historical data...
Loading historical data...
Loading historical data...
Loading historical data...
Loading historical data...

Documentation

Showing up to 5 results
|